Starlink 31481

operational
NORAD ID: 59541 Int'l Des: 2024-074 Owner: SPXS Country: US Constellation: starlink
LEOCIRCULAR

关于 Starlink 31481

正在加载描述...

实时位置

正在加载3D地球...

即将过境

高度历史

Altitude vs Time

uPlot chart will show altitude changes over time

两行轨道根数

1 59541U 24074H 25305.49391953 -.00002607 00000-0 -85290-4 0 9994
2 59541 43.0003 347.0598 0001050 254.4328 105.6408 15.27566826 86417
Epoch: Nov 1, 2025 • Age: 20 hours

当前状态

高度 495.6 km
速度 7.62 km/s
星下点 -42.81°S, 101.04°E
发射日期 Apr 18, 2024
运行时间 1.5 years
类型 internet

技术详情

分类 Payload
质量 730.00 kg
干质量 700.00 kg
总质量 730.00 kg
长度 0.30 m
直径 4.10 m
跨度 29.00 m
形状 Box + pan
制造商 SPXS
平台类型 Starlink V2M
阶段状态 In Orbit
所有者/国家 SPXS/US

大型星座

Loading constellations...